Voltar ao catálogo

COSMOS 381

AtivoMilitarLEO
NORAD 4783·PAYLOAD·🇷🇺 Russia

Lançado Dec 2, 1970 de Plesetsk Cosmodrome

Loading…

Próximas Passagens (próximas 24 horas)

TLE

AtualizadoSource: Space-Track

Época: Sep 14, 2026, 14:26 UTC

1 04783U 70102A   26257.60193939 -.00000001  00000-0  22598-4 0  9996
2 04783  74.0312 223.0281 0031373 224.4435 135.4167 13.75052430798449

Acompanhe COSMOS 381 em tempo real com AllMySat

Download on the App Store